[[{"header":{"parameterUnit":"m.s-1","parameterCategory":1,"la1":30.2991,"la2":30.254,"lo1":-89.0895,"lo2":-89.0444,"dy":0.0017,"dx":0.0017,"nx":28,"ny":28,"refTime":"2024-05-24T03:00:00:Z","depth":0,"parameterNumber":2,"parameterNumberName":"U-component_of_WINDS"},"data":[0,0,0,0,0,0,0,0,0,0,0,0,0,0,0,0,0,0,0,0,0,0,0,0,0,0,0,0,0,0,0,0,0,0,0,0,0,0,0,0,0,0,0,0,0,0,0,0,0,0,0,0,0,0,0,0,0,0,0.4613,0.4614,0,0.4695,0.4696,0.4697,0.4696,0.4695,0.4694,0.4693,0.4777,0.478,0.4783,0,0,0,0,0,0,0,0,0,0,0,0,0,0.4455,0.4458,0.4613,0.4614,0.4615,0.4695,0.4696,0.4697,0.4696,0.4695,0.4693,0.4692,0.4776,0.478,0.4784,0,0,0,0,0,0,0,0,0,0,0,0,0,0.4529,0.4459,0.4613,0.4624,0.4626,0.4694,0.4696,0.4697,0.4696,0.4695,0.4693,0.4691,0.4775,0.4779,0.4784,0.4847,0,0,0.4799,0.4801,0,0,0,0,0,0,0,0,0.4525,0.4535,0.4621,0.4623,0.4626,0.4683,0.4671,0.4747,0.4697,0.467,0.4692,0.4691,0.4747,0.4754,0.4773,0.4851,0.4854,0.4799,0.4802,0.4805,0.4806,0,0,0,0,0,0,0,0.452,0.4531,0.4645,0.4623,0.4625,0.4625,0.4633,0.4685,0.4716,0.4672,0.4672,0.4682,0.4748,0.4768,0.4775,0.4856,0.4799,0.4804,0.4807,0.4809,0.4987,0.4989,0,0,0,0,0,0,0.4512,0.4527,0.4643,0.4648,0.457,0.4629,0.4639,0.4666,0.4716,0.4722,0.4683,0.4681,0.4761,0.4769,0.4778,0.4854,0.4804,0.4809,0.4812,0.4986,0.4988,0.499,0,0,0,0,0,0,0.4509,0.4523,0.4639,0.4587,0.4602,0.4633,0.4665,0.4669,0.4689,0.4724,0.473,0.4698,0.476,0.4771,0.4829,0.4857,0.4811,0.4816,0.4984,0.4986,0.4989,0.5008,0,0,0,0,0,0,0.4504,0.4521,0.4546,0.4588,0.4605,0.469,0.4666,0.4672,0.4698,0.4696,0.474,0.4746,0.4759,0.4822,0.4834,0.4863,0.482,0.4981,0.4985,0.4988,0.5005,0.5011,0.5016,0,0,0,0,0,0.4499,0.4548,0.4547,0.4561,0.4636,0.4691,0.4701,0.4716,0.47,0.4725,0.4747,0.4744,0.4852,0.4828,0.4842,0.4873,0.498,0.4984,0.4988,0.5002,0.501,0.5016,0,0,0,0,0,0,0.4509,0.4554,0.4553,0.4618,0.4651,0.4691,0.4723,0.4723,0.4761,0.4759,0.4775,0.4785,0.4843,0.4863,0.4836,0.4935,0.4914,0.4921,0.492,0.4927,0.4933,0.4927,0.4824,0,0,0,0,0,0.4519,0.456,0.4597,0.465,0.4667,0.4692,0.4717,0.4725,0.4759,0.4773,0.48,0.4834,0.4875,0.4902,0.4942,0.5007,0.5016,0.5035,0.504,0.5045,0.5051,0.5086,0.5095,0.5003,0.5003,0.5003,0,0,0.454,0.4569,0.4595,0.4653,0.468,0.4722,0.4704,0.4749,0.478,0.478,0.4837,0.4857,0.4896,0.4958,0.4986,0.4977,0.5078,0.505,0.5053,0.5057,0.5091,0.51,0.5108,0.5006,0.5006,0.5005,0,0,0.46,0.4626,0.4674,0.47,0.474,0.4756,0.4767,0.4807,0.482,0.4877,0.4878,0.4914,0.4985,0.5013,0.5036,0.5104,0.5103,0.5116,0.5146,0.518,0.5187,0.5193,0.5218,0.5226,0.5122,0.5122,0.5122,0,0.4621,0.4685,0.4698,0.4743,0.4769,0.4769,0.4817,0.4842,0.4893,0.4911,0.4898,0.4987,0.5013,0.5081,0.5097,0.5115,0.5129,0.5112,0.5185,0.5191,0.5198,0.5221,0.523,0.5123,0.5123,0.5123,0.5123,0,0.4708,0.4752,0.4785,0.4834,0.4863,0.491,0.4929,0.4957,0.4962,0.4979,0.5036,0.5067,0.5113,0.5129,0.5135,0.5198,0.519,0.5181,0.516,0.5208,0.523,0.5239,0.5125,0.5125,0.5124,0.5124,0,0,0.478,0.4833,0.4846,0.4867,0.491,0.4944,0.499,0.5034,0.5057,0.5092,0.513,0.5189,0.5181,0.5207,0.5215,0.5245,0.5296,0.5232,0.5234,0.5244,0.5367,0.5374,0.5385,0.5295,0.5297,0.5298,0.5364,0,0.4844,0.4926,0.4938,0.501,0.505,0.505,0.509,0.512,0.5137,0.5173,0.5191,0.5233,0.5218,0.5234,0.5263,0.5284,0.5322,0.5279,0.5332,0.5333,0.5323,0.5396,0.5404,0.5465,0.5373,0.5374,0.5375,0,0.4932,0.4968,0.5043,0.508,0.5097,0.5133,0.5174,0.5208,0.5242,0.5252,0.528,0.5284,0.5331,0.5306,0.5371,0.5341,0.5363,0.5376,0.5379,0.5386,0.5358,0.5405,0.5485,0.5494,0.5389,0.5388,0.5387,0,0.4976,0.5044,0.5098,0.5116,0.516,0.5184,0.5204,0.5236,0.5261,0.5297,0.5313,0.5353,0.5376,0.5407,0.5422,0.5402,0.5485,0.5462,0.5495,0.5494,0.5513,0.5512,0.5598,0.5526,0.5525,0.5525,0.5525,0,0.5048,0.5095,0.5118,0.5152,0.5203,0.5216,0.5266,0.5285,0.5313,0.5349,0.5351,0.5385,0.5402,0.5438,0.545,0.5501,0.5511,0.5521,0.5523,0.5521,0.552,0.5537,0.5533,0.5528,0.5527,0.5527,0.5526,0,0.5108,0.5126,0.5184,0.522,0.523,0.5266,0.5297,0.5329,0.5344,0.539,0.5401,0.5425,0.5468,0.5485,0.5538,0.5545,0.5605,0.5604,0.5594,0.5595,0.5627,0.5624,0.5727,0.5742,0.5658,0.5659,0.566,0,0.5153,0.5189,0.5228,0.5253,0.5273,0.5312,0.5337,0.5351,0.5377,0.5417,0.5444,0.5487,0.5522,0.559,0.5612,0.5651,0.5652,0.5685,0.5658,0.5654,0.5653,0.5651,0.5655,0.5691,0.5692,0.5693,0.5693,0,0.5232,0.5239,0.5276,0.5315,0.5346,0.5378,0.5409,0.5428,0.5446,0.5475,0.5519,0.5546,0.5598,0.5641,0.5681,0.5701,0.57,0.5701,0.5711,0.571,0.5703,0.5707,0.5608,0.5699,0.5699,0.5698,0.5698,0.5698,0.5287,0.5318,0.535,0.5391,0.5415,0.5444,0.5475,0.5494,0.553,0.5574,0.5579,0.5626,0.5657,0.5712,0.5732,0.5769,0.576,0.5774,0.5778,0.5782,0.5784,0.5695,0.5776,0.5776,0.5776,0.5776,0.5775,0,0.5366,0.5386,0.5423,0.5466,0.5498,0.5493,0.5527,0.5554,0.5595,0.5624,0.5658,0.5707,0.5747,0.5772,0.5812,0.5836,0.5837,0.5846,0.5845,0.585,0.5789,0.5777,0.5845,0.5845,0.5845,0.5845,0.5845,0.5845,0.5411,0.5464,0.5474,0.5538,0.5558,0.5603,0.5623,0.5649,0.5672,0.5727,0.576,0.5776,0.5803,0.5845,0.5881,0.5887,0.5902,0.5913,0.5918,0.5861,0.5854,0.5847,0.5836,0.5916,0.5916,0.5976,0.5976,0.5977]},{"header":{"parameterUnit":"m.s-1","parameterCategory":1,"la1":30.2991,"la2":30.254,"lo1":-89.0895,"lo2":-89.0444,"dy":0.0017,"dx":0.0017,"nx":28,"ny":28,"refTime":"2024-05-24T03:00:00:Z","depth":0,"parameterNumber":3,"parameterNumberName":"V-component_of_WINDS"},"data":[0,0,0,0,0,0,0,0,0,0,0,0,0,0,0,0,0,0,0,0,0,0,0,0,0,0,0,0,0,0,0,0,0,0,0,0,0,0,0,0,0,0,0,0,0,0,0,0,0,0,0,0,0,0,0,0,0,0,4.9791,4.9791,0,4.9782,4.9782,4.9782,4.9713,4.9711,4.9709,4.9708,4.9699,4.97,4.9702,0,0,0,0,0,0,0,0,0,0,0,0,0,4.9749,4.9751,4.9791,4.9791,4.9791,4.9782,4.9782,4.9782,4.9713,4.9711,4.9709,4.9707,4.9698,4.97,4.9702,0,0,0,0,0,0,0,0,0,0,0,0,0,4.9757,4.9751,4.9791,4.9756,4.9752,4.9782,4.9782,4.9782,4.9714,4.9711,4.9709,4.9706,4.9698,4.97,4.9702,4.9765,0,0,4.9708,4.9709,0,0,0,0,0,0,0,0,4.9756,4.9758,4.9761,4.9758,4.9755,4.9746,4.9764,4.9776,4.9714,4.9728,4.9708,4.9705,4.9717,4.9717,4.9721,4.9765,4.9764,4.9708,4.9709,4.971,4.9711,0,0,0,0,0,0,0,4.9756,4.9758,4.9788,4.9761,4.9757,4.974,4.9738,4.9766,4.9737,4.9727,4.9722,4.9722,4.9714,4.9719,4.972,4.9764,4.9708,4.971,4.9711,4.9712,4.986,4.9862,0,0,0,0,0,0,4.976,4.9758,4.9788,4.9787,4.9749,4.9743,4.9741,4.9751,4.9736,4.9732,4.9724,4.9719,4.9717,4.9718,4.972,4.9793,4.971,4.9712,4.9713,4.9857,4.986,4.9863,0,0,0,0,0,0,4.976,4.9764,4.9788,4.9771,4.9773,4.9746,4.9759,4.9752,4.9757,4.9734,4.9729,4.9734,4.9715,4.9717,4.9754,4.9791,4.9713,4.9715,4.9854,4.9858,4.9862,4.994,0,0,0,0,0,0,4.9759,4.9764,4.9788,4.9773,4.9774,4.9823,4.9761,4.9754,4.9761,4.9754,4.9742,4.9738,4.9713,4.9752,4.9756,4.9793,4.9716,4.985,4.9856,4.9861,4.9934,4.9946,4.9956,0,0,0,0,0,4.9758,4.981,4.9789,4.9793,4.9804,4.9826,4.9827,4.9797,4.9764,4.9788,4.9773,4.9738,4.9787,4.9756,4.9761,4.9798,4.9848,4.9854,4.986,4.9929,4.9943,4.9956,0,0,0,0,0,0,4.983,4.9807,4.9784,4.9833,4.9832,4.9814,4.9843,4.9814,4.9822,4.9815,4.9778,4.9776,4.9819,4.9812,4.9779,4.9859,4.9811,4.9819,4.9862,4.9876,4.9887,4.9888,4.9718,0,0,0,0,0,4.9852,4.9872,4.9851,4.9896,4.9896,4.987,4.9878,4.9856,4.9853,4.9852,4.984,4.9839,4.9854,4.9864,4.9877,4.9932,4.9929,4.9961,4.9972,4.9981,4.9988,5.0017,5.0031,4.9883,4.9883,4.9883,0,0,4.9897,4.9887,4.9902,4.991,4.9907,4.9928,4.987,4.9895,4.991,4.9856,4.9891,4.9882,4.9878,4.9925,4.9945,4.9921,5.0028,4.9989,4.9997,4.9998,5.0025,5.0039,5.0051,4.9888,4.9887,4.9886,0,0,4.999,4.9984,5.0021,5.0019,5.0014,4.9996,5.0005,4.9992,4.9984,5.0018,4.9978,4.9996,5.0022,5.0021,5.0024,5.0117,5.0085,5.0122,5.0181,5.021,5.0222,5.0232,5.0265,5.0277,5.0129,5.0129,5.0129,0,5.0047,5.0077,5.0044,5.0072,5.0077,5.0028,5.0066,5.0065,5.0065,5.0069,5.0042,5.0074,5.0068,5.0114,5.0137,5.0141,5.015,5.0123,5.0223,5.0233,5.0241,5.0273,5.0285,5.0134,5.0133,5.0133,5.0132,0,5.0147,5.0169,5.0199,5.02,5.0208,5.0241,5.0213,5.0226,5.0202,5.0187,5.0223,5.0214,5.0224,5.0233,5.0211,5.0277,5.0262,5.0229,5.0181,5.0261,5.0289,5.0301,5.014,5.0138,5.0137,5.0136,0,0,5.0285,5.0267,5.0279,5.0279,5.027,5.0286,5.0317,5.0326,5.0338,5.0339,5.0364,5.0388,5.0358,5.0361,5.0338,5.0363,5.0438,5.0328,5.0327,5.0348,5.0509,5.0534,5.0548,5.0417,5.0419,5.0421,5.051,0,5.0374,5.0425,5.0397,5.0451,5.0471,5.0425,5.0452,5.045,5.0437,5.0451,5.0437,5.0454,5.0413,5.0415,5.0438,5.0424,5.0469,5.0417,5.0439,5.0441,5.0442,5.0563,5.0589,5.0674,5.0521,5.0523,5.0524,0,5.0485,5.0492,5.0548,5.0536,5.0543,5.0567,5.0574,5.0589,5.0585,5.0574,5.0578,5.0549,5.0578,5.053,5.057,5.0535,5.0542,5.0537,5.0539,5.054,5.0487,5.0568,5.07,5.0713,5.0541,5.054,5.0539,0,5.0581,5.0603,5.064,5.0641,5.0628,5.0646,5.0641,5.0635,5.0642,5.0648,5.0653,5.0662,5.0667,5.0675,5.0649,5.0617,5.0693,5.0643,5.0684,5.0685,5.0702,5.0701,5.0838,5.0707,5.0707,5.0707,5.0707,0,5.0683,5.072,5.0683,5.0705,5.0745,5.0712,5.0752,5.0742,5.0738,5.0758,5.0719,5.0739,5.0703,5.072,5.07,5.0736,5.0738,5.073,5.0725,5.0734,5.0735,5.0738,5.0732,5.071,5.0709,5.0709,5.0708,0,5.0797,5.0773,5.081,5.0794,5.0791,5.0821,5.0807,5.0828,5.0812,5.0838,5.0842,5.0818,5.0835,5.081,5.0825,5.0811,5.0861,5.0846,5.0862,5.0858,5.0901,5.0898,5.1045,5.1062,5.092,5.0922,5.0923,0,5.0864,5.0891,5.0878,5.0888,5.0886,5.0903,5.0911,5.0879,5.0889,5.0887,5.0908,5.0922,5.0931,5.0961,5.0945,5.0956,5.0941,5.0992,5.0942,5.0951,5.0942,5.0941,5.0943,5.1002,5.1004,5.1005,5.1006,0,5.0986,5.0973,5.0985,5.0993,5.1003,5.1008,5.1011,5.1022,5.0989,5.1001,5.1018,5.1026,5.104,5.1055,5.1062,5.1057,5.1027,5.1022,5.1032,5.1042,5.105,5.1046,5.089,5.1019,5.1017,5.1016,5.1016,5.1015,5.1078,5.11,5.1094,5.1109,5.1107,5.111,5.1129,5.1115,5.1129,5.1138,5.1119,5.1141,5.1137,5.1143,5.1141,5.1158,5.1136,5.1151,5.1155,5.1159,5.1166,5.1047,5.1159,5.1159,5.1159,5.1158,5.1158,0,5.1198,5.1192,5.1206,5.121,5.1222,5.1192,5.1193,5.1205,5.1225,5.1223,5.1233,5.1253,5.1267,5.1252,5.1263,5.1279,5.1266,5.1283,5.1282,5.1281,5.1185,5.1175,5.1294,5.1294,5.1294,5.1294,5.1294,5.1294,5.1261,5.1297,5.1283,5.1318,5.1311,5.1332,5.1335,5.1338,5.1337,5.136,5.1372,5.1362,5.1355,5.1365,5.1377,5.1372,5.1378,5.14,5.1391,5.1301,5.1288,5.1275,5.1266,5.1402,5.1402,5.1486,5.1486,5.1487]}]]